Abingdon, VA

3:42 AM EST on December 13, 2019 (GMT -0500)
Virginia Highlands

Weather History for KVJI - November, 2019

Change the Weather History Date:

Tuesday, November 19, 2019

  Actual Average (KTRI) Record (KTRI)
Temperature  
Mean Temperature 41 °F -  
Max Temperature 48 °F 59 °F 78 °F (1985)
Min Temperature 35 °F 35 °F 13 °F (2014)
Degree Days  
Heating Degree Days 24    
Moisture  
Dew Point 29 °F    
Average Humidity 64    
Maximum Humidity 82    
Minimum Humidity 42    
Precipitation  
Precipitation 0.00 in - - ()
Sea Level Pressure  
Sea Level Pressure 29.85 in    
Wind  
Wind Speed 2 mph (West)    
Max Wind Speed 14 mph    
Max Gust Speed 18 mph    
Visibility 10 miles    
Events Rain    
Averages and records for this station are not official NWS values.
T = Trace of Precipitation, MM = Missing Value Source: NWS Daily Summary

Daily Weather History Graph

Daily Weather History Graph

Search for Another Location

Airport or City:

Astronomy

Nov. 19, 2019 Rise Set
Actual Time 7:09 AM EST 5:16 PM EST
Civil Twilight 6:42 AM EST 5:44 PM EST
Nautical Twilight 6:10 AM EST 6:15 PM EST
Astronomical Twilight 5:39 AM EST 6:46 PM EST
Moon No Moon Rise 1:20 PM EST (11/19)
Length of Visible Light 11h 02m
Length of Day
10h 06m
Waning Gibbous, 52% of the Moon is Illuminated
Nov 19
Waning Gibbous
Nov 19
Last Quarter
Nov 26
New
Dec 4
First Quarter
Dec 12
Full

Hourly Weather History & Observations

Time (EST) Temp. Windchill Dew Point Humidity Pressure Visibility Wind Dir Wind Speed Gust Speed Precip Events Conditions
12:15 AM 36.3 °F - 28.9 °F 75% 29.80 in 10.0 mi Calm Calm - N/A   Mostly Cloudy
12:35 AM 38.1 °F - 28.9 °F 70% 29.79 in 10.0 mi Calm Calm - N/A   Overcast
12:55 AM 36.5 °F - 29.7 °F 76% 29.79 in 10.0 mi Calm Calm - N/A   Overcast
1:15 AM 36.5 °F - 29.7 °F 76% 29.79 in 10.0 mi Calm Calm - N/A   Overcast
1:35 AM 36.5 °F - 29.7 °F 76% 29.80 in 10.0 mi Calm Calm - N/A   Overcast
1:55 AM 37.8 °F - 29.3 °F 72% 29.79 in 10.0 mi Calm Calm - N/A   Scattered Clouds
2:15 AM 37.4 °F - 29.3 °F 73% 29.78 in 10.0 mi Calm Calm - N/A   Scattered Clouds
2:35 AM 36.0 °F - 29.3 °F 77% 29.78 in 10.0 mi Calm Calm - N/A   Clear
2:55 AM 36.1 °F - 29.7 °F 77% 29.78 in 10.0 mi Calm Calm - N/A   Clear
3:15 AM 35.6 °F - 29.8 °F 80% 29.78 in 10.0 mi Calm Calm - N/A   Mostly Cloudy
3:35 AM 35.6 °F - 30.6 °F 82% 29.78 in 10.0 mi Calm Calm - N/A   Mostly Cloudy
3:55 AM 36.9 °F - 29.5 °F 75% 29.78 in 10.0 mi Calm Calm - N/A   Scattered Clouds
4:15 AM 35.8 °F 33.0 °F 30.2 °F 80% 29.80 in 10.0 mi WSW 3.5 mph - N/A   Mostly Cloudy
4:35 AM 36.7 °F - 29.8 °F 76% 29.80 in 10.0 mi Calm Calm - N/A   Overcast
4:55 AM 36.9 °F - 29.3 °F 74% 29.81 in 10.0 mi Calm Calm - N/A   Mostly Cloudy
5:15 AM 37.0 °F - 30.0 °F 76% 29.81 in 10.0 mi Calm Calm - N/A   Overcast
5:35 AM 37.4 °F 34.9 °F 30.2 °F 75% 29.80 in 10.0 mi WNW 3.5 mph - N/A   Overcast
5:55 AM 37.4 °F 33.8 °F 30.2 °F 75% 29.81 in 10.0 mi West 4.6 mph - N/A   Overcast
6:15 AM 37.4 °F 33.8 °F 30.2 °F 75% 29.81 in 10.0 mi West 4.6 mph - N/A   Overcast
6:35 AM 37.4 °F 34.9 °F 30.2 °F 75% 29.82 in 10.0 mi West 3.5 mph - N/A   Overcast
6:55 AM 37.4 °F 33.8 °F 30.6 °F 76% 29.82 in 10.0 mi WNW 4.6 mph - N/A   Overcast
7:15 AM 37.4 °F 34.9 °F 30.7 °F 77% 29.83 in 10.0 mi West 3.5 mph - N/A   Overcast
7:35 AM 37.6 °F 34.0 °F 30.9 °F 77% 29.84 in 10.0 mi West 4.6 mph - N/A   Overcast
7:55 AM 37.8 °F 34.2 °F 31.1 °F 77% 29.84 in 10.0 mi West 4.6 mph - N/A   Overcast
8:15 AM 38.3 °F 34.8 °F 31.5 °F 76% 29.85 in 10.0 mi West 4.6 mph - N/A   Overcast
8:35 AM 38.8 °F 34.6 °F 32.0 °F 76% 29.85 in 10.0 mi West 5.8 mph - N/A   Overcast
9:15 AM 39.9 °F 35.1 °F 32.0 °F 73% 29.85 in 10.0 mi West 6.9 mph - N/A   Overcast
9:55 AM 41.4 °F 39.4 °F 31.5 °F 68% 29.85 in 10.0 mi WNW 3.5 mph - N/A   Overcast
10:15 AM 41.4 °F - 31.1 °F 67% 29.85 in 10.0 mi Calm Calm - N/A   Overcast
10:35 AM 41.5 °F - 30.0 °F 64% 29.85 in 10.0 mi Calm Calm - N/A   Mostly Cloudy
10:55 AM 42.4 °F - 29.7 °F 61% 29.85 in 10.0 mi Calm Calm - N/A   Mostly Cloudy
11:35 AM 43.0 °F 40.3 °F 28.8 °F 57% 29.85 in 10.0 mi WNW 4.6 mph - N/A   Overcast
11:55 AM 43.5 °F 40.9 °F 28.9 °F 56% 29.85 in 10.0 mi WNW 4.6 mph - N/A   Overcast
12:15 PM 46.2 °F 42.7 °F 29.3 °F 52% 29.84 in 10.0 mi WSW 6.9 mph - N/A   Mostly Cloudy
12:55 PM 46.8 °F - 28.9 °F 50% 29.83 in 10.0 mi SW 6.9 mph - N/A   Scattered Clouds
1:15 PM 47.7 °F - 29.5 °F 49% 29.83 in 10.0 mi SW 8.1 mph - N/A   Scattered Clouds
1:55 PM 47.8 °F - 28.2 °F 47% 29.83 in 10.0 mi West 10.4 mph - N/A   Mostly Cloudy
2:15 PM 47.7 °F - 28.8 °F 48% 29.82 in 10.0 mi WSW 9.2 mph - N/A   Overcast
2:35 PM 47.7 °F - 27.7 °F 46% 29.82 in 10.0 mi SW 9.2 mph - N/A   Overcast
2:55 PM 47.3 °F - 27.0 °F 45% 29.82 in 10.0 mi WSW 9.2 mph - N/A   Overcast
3:15 PM 47.3 °F - 26.6 °F 45% 29.82 in 10.0 mi WSW 5.8 mph - N/A   Overcast
3:35 PM 46.8 °F - 26.8 °F 46% 29.83 in 10.0 mi West 5.8 mph - N/A   Overcast
3:55 PM 46.6 °F - 26.4 °F 45% 29.83 in 10.0 mi West 5.8 mph - N/A   Overcast
4:15 PM 46.6 °F - 24.4 °F 42% 29.84 in 10.0 mi West 4.6 mph - N/A   Overcast
4:35 PM 46.2 °F 45.0 °F 27.3 °F 48% 29.84 in 10.0 mi West 3.5 mph - N/A   Overcast
4:55 PM 45.9 °F 43.6 °F 26.1 °F 46% 29.85 in 10.0 mi West 4.6 mph - N/A   Overcast
5:15 PM 45.7 °F 44.4 °F 25.3 °F 45% 29.85 in 10.0 mi WNW 3.5 mph - N/A   Overcast
5:35 PM 45.5 °F 43.2 °F 25.7 °F 46% 29.86 in 10.0 mi WNW 4.6 mph - N/A   Overcast
5:55 PM 45.1 °F 43.7 °F 26.2 °F 48% 29.87 in 10.0 mi WNW 3.5 mph - N/A   Overcast
6:15 PM 45.1 °F - 26.2 °F 48% 29.88 in 10.0 mi Calm Calm - N/A   Overcast
6:35 PM 44.8 °F - 26.2 °F 48% 29.88 in 10.0 mi Calm Calm - N/A   Overcast
6:55 PM 44.4 °F - 27.1 °F 51% 29.89 in 10.0 mi Calm Calm - N/A   Overcast
7:15 PM 43.0 °F 36.0 °F 29.3 °F 59% 29.90 in 10.0 mi West 13.8 mph 18.4 mph N/A   Overcast
7:35 PM 44.1 °F 41.5 °F 25.9 °F 49% 29.91 in 10.0 mi NNW 4.6 mph - N/A   Overcast
7:55 PM 44.1 °F 40.1 °F 26.8 °F 51% 29.91 in 10.0 mi NNW 6.9 mph - N/A Rain Light Rain
8:15 PM 43.2 °F 40.5 °F 27.3 °F 54% 29.92 in 10.0 mi North 4.6 mph - N/A   Overcast
8:35 PM 42.8 °F 40.1 °F 27.7 °F 55% 29.92 in 10.0 mi West 4.6 mph - N/A   Overcast
8:55 PM 41.5 °F 37.8 °F 32.7 °F 71% 29.92 in 10.0 mi WSW 5.8 mph - N/A   Overcast
9:15 PM 41.2 °F 38.2 °F 32.9 °F 72% 29.92 in 10.0 mi WSW 4.6 mph - N/A   Overcast
9:35 PM 41.0 °F 39.0 °F 33.3 °F 74% 29.93 in 10.0 mi WSW 3.5 mph - N/A   Overcast
9:55 PM 41.0 °F - 33.4 °F 74% 29.93 in 10.0 mi Calm Calm - N/A   Overcast
10:15 PM 41.0 °F - 33.4 °F 74% 29.93 in 10.0 mi Calm Calm - N/A   Overcast
10:35 PM 41.0 °F 39.0 °F 33.3 °F 74% 29.93 in 10.0 mi WSW 3.5 mph - N/A   Overcast
10:55 PM 41.0 °F 39.0 °F 33.4 °F 74% 29.93 in 10.0 mi WSW 3.5 mph - N/A   Overcast
11:15 PM 41.0 °F 39.0 °F 33.3 °F 74% 29.93 in 10.0 mi West 3.5 mph - N/A   Overcast
11:35 PM 41.0 °F 39.0 °F 33.8 °F 76% 29.94 in 10.0 mi West 3.5 mph - N/A   Overcast